Home   Weather   Alicante   Past weeks

Flag for Spain Past Weather in Alicante, Spain — Yesterday and Last 2 Weeks

Now
63 °F

Partly cloudy.


Feels Like: 63 °F
Forecast: 58 / 65 °F
Wind: 3 mph from East

Location: Alicante / El Altet

Current Time: Dec 5, 2016 at 7:43:04 pm

Latest Report: Dec 5, 2016 at 7:00 pm


Visibility: N/A

Pressure: 30.04 "Hg

Humidity: 88%

Dew Point: 59 °F

Location of AlicanteLocation

Past Weather in Alicante — Graph

°F

Alicante Temperature Yesterday

Maximum temperature yesterday: 63 °F (at 10:00 am)
Minimum temperature yesterday: 57 °F (at 12:00 am)
Average temperature yesterday: 61 °F

High & Low Weather Summary for the Past Weeks

 TemperatureHumidityPressure
High70 °F (Nov 21, 2:00 pm)100% (Nov 23, 6:30 am)30.39 "Hg (Nov 23, 6:30 am)
Low43 °F (Nov 25, 4:30 am)42% (Nov 25, 12:30 pm)29.56 "Hg (Nov 22, 3:30 pm)
Average58 °F78%29.91 "Hg
* Reported Nov 20 6:00 pm — Dec 5 6:30 pm, Alicante, Weather by CustomWeather, © 2016

Note: Actual official high and low records may vary slightly from our data, if they occured in-between our weather recording intervals... More about our weather records

Advertising

Alicante Weather History for the Previous 24 Hours

Scroll right to see more
 ConditionsComfort  
Time TempWeatherWind HumidityBarometerVisibility
6:30 pm
Mon, Dec 5
63 °FPartly cloudy.2 mph88%30.04 "HgN/A
6:00 pm63 °FPartly cloudy.5 mph88%30.04 "HgN/A
5:30 pm63 °FBroken clouds.6 mph94%30.04 "HgN/A
5:00 pm63 °FBroken clouds.7 mph88%30.01 "HgN/A
4:30 pm64 °FScattered clouds.8 mph83%30.01 "HgN/A
4:00 pm64 °FScattered clouds.8 mph83%30.01 "HgN/A
3:30 pm64 °FScattered clouds.6 mph83%30.01 "HgN/A
3:00 pm64 °FPartly sunny.2 mph83%29.98 "HgN/A
2:30 pm63 °FPartly sunny.2 mph83%29.98 "HgN/A
2:00 pm63 °FRain. Broken clouds.3 mph88%29.98 "HgN/A
1:30 pm63 °FRain. Broken clouds.3 mph88%29.98 "Hg5 mi
1:00 pm63 °FLight rain. Partly sunny.6 mph83%29.98 "Hg2 mi
12:52 pm63 °FLight rain. Broken clouds.7 mph88%29.98 "Hg2 mi
12:30 pm64 °FScattered clouds.5 mph83%29.98 "HgN/A
12:00 pm63 °FScattered clouds.3 mph94%29.98 "HgN/A
11:30 am63 °FPartly sunny.5 mph88%30.01 "HgN/A
11:00 am61 °FBroken clouds.6 mph94%30.01 "HgN/A
10:30 am61 °FBroken clouds.6 mph94%29.98 "Hg6 mi
10:00 am61 °FRain showers. Broken clouds.8 mph88%29.98 "Hg6 mi
9:30 am61 °FSprinkles. Broken clouds.10 mph88%29.98 "HgN/A
9:00 am61 °FRain. Broken clouds.7 mph88%29.95 "HgN/A
8:30 am61 °FBroken clouds.5 mph88%29.95 "HgN/A
8:00 am61 °FBroken clouds.7 mph88%29.95 "HgN/A
7:30 am61 °FPartly cloudy.7 mph88%29.92 "HgN/A
7:00 am61 °FPartly cloudy.12 mph88%29.92 "HgN/A
6:30 am61 °FPartly cloudy.6 mph94%29.92 "HgN/A
6:00 am61 °FLots of rain. Partly cloudy.1 mph94%29.89 "Hg2 mi
5:30 am61 °FHeavy rain. Passing clouds.7 mph94%29.89 "Hg2 mi
5:00 am61 °FHeavy rain. Passing clouds.7 mph88%29.89 "Hg2 mi
4:30 am61 °FRain. Passing clouds.6 mph88%29.89 "Hg2 mi
4:00 am59 °FHeavy rain. Passing clouds.5 mph94%29.89 "Hg2 mi
3:30 am59 °FHeavy rain. Passing clouds.7 mph94%29.89 "Hg2 mi
3:00 am61 °FRain. Passing clouds.10 mph88%29.89 "HgN/A
2:30 am61 °FLight rain. Passing clouds.9 mph88%29.89 "HgN/A
2:00 am61 °FLight rain. Partly cloudy.9 mph88%29.89 "HgN/A
1:30 am61 °FLight rain. Partly cloudy.9 mph88%29.89 "HgN/A
1:00 am61 °FRain. Partly cloudy.10 mph88%29.89 "HgN/A
12:30 am61 °FLight rain. Partly cloudy.9 mph88%29.89 "HgN/A
12:00 am61 °FLight rain. Partly cloudy.9 mph83%29.89 "HgN/A
11:30 pm
Sun, Dec 4
61 °FSprinkles. Partly cloudy.10 mph83%29.89 "HgN/A
11:00 pm61 °FSprinkles. Partly cloudy.10 mph83%29.89 "HgN/A
10:30 pm61 °FSprinkles. Partly cloudy.12 mph88%29.89 "HgN/A
10:00 pm61 °FLight rain. Partly cloudy.12 mph88%29.89 "Hg2 mi
9:30 pm61 °FLight rain. Partly cloudy.12 mph88%29.89 "Hg2 mi
9:00 pm61 °FLight rain. Partly cloudy.12 mph88%29.89 "Hg2 mi
8:30 pm61 °FRain. Partly cloudy.12 mph83%29.89 "Hg2 mi
8:00 pm61 °FRain. Partly cloudy.13 mph88%29.89 "Hg2 mi
7:30 pm61 °FRain showers. Partly cloudy.15 mph94%29.86 "Hg2 mi
7:00 pm63 °FRain. Partly cloudy.16 mph83%29.86 "Hg5 mi
Weather by CustomWeather, © 2016

See weather overviewHow to use our weather pages